sat.trackr.live / text

‹ back to catalog

STARLINK-2491

NORAD 48148 · 2021-027BJ

PAYLOAD ACTIVE UNKNOWN

§ Identity

Operator
Country
US
Launch date
2021-04-07
Launch site
AFETR
Launch vehicle
Mass (kg)
RCS (m²)

Purposes: comms

External: N2YO · Heavens-Above · Gunter

§ Orbital elements

Epoch: 2026-05-25T01:11:04.437888Z

Period
94.01 min
Inclination
53.1603°
Eccentricity
0.0001201
Mean motion
15.31696454 rev/d
Perigee alt
469.9 km
Apogee alt
471.6 km
Semi-major
6,848.9 km
B*
-6.8240e-5
RAAN
170.5633°
Arg perigee
94.1566°
Mean anomaly
265.9573°
Rev number
28,419

§ Raw data

STARLINK-24911 48148U 21027BJ  26145.04935692 -.00002482  00000+0 -68240-4 0  99942 48148  53.1603 170.5633 0001201  94.1566 265.9573 15.31696454284190

JSON: /api/v1/satellites/48148 · /tle

For live sub-satellite position, see the globe view (requires WebGL).

§ Visibility from observer

Set your observer location to see the next 7 days of passes ≥ 10°. The values pass through the URL so the page stays shareable.

No JS? Fill the form by hand. The geolocation button needs JavaScript.